Edmundston, New Brunswick

12:33 PM ADT on August 27, 2016 (GMT -0300)
Edmundston

Weather History for 71590 - January, 2014

Change the Weather History Date:

Saturday, January 25, 2014

  Actual Average Record
Temperature  
Mean Temperature 3 °F -  
Max Temperature 21 °F - - ()
Min Temperature -15 °F - - ()
Degree Days  
Heating Degree Days 62    
Moisture  
Dew Point 2 °F    
Average Humidity 72    
Maximum Humidity 94    
Minimum Humidity 38    
Precipitation  
Precipitation 0.16 in - - ()
Sea Level Pressure  
Sea Level Pressure 29.63 in    
Wind  
Wind Speed 3 mph ()    
Max Wind Speed 9 mph    
Max Gust Speed -    
T = Trace of Precipitation, MM = Missing Value Source: Averaged Metar Reports

Daily Weather History Graph

Daily Weather History Graph

Search for Another Location

Airport or City:

Trip Planner

Search our weather history database for the weather conditions in past years. The results will help you decide how hot, cold, wet, or windy it might be!

Date:

Astronomy

Jan. 25, 2014 Rise Set
Actual Time 8:07 AM AST 5:24 PM AST
Civil Twilight 7:33 AM AST 5:57 PM AST
Nautical Twilight 6:56 AM AST 6:35 PM AST
Astronomical Twilight 6:20 AM AST 7:11 PM AST
Moon 2:33 AM AST (1/25) 12:22 PM AST (1/25)
Length of Visible Light 10h 23m
Length of Day
9h 16m
Waning Crescent, 34% of the Moon is Illuminated
Jan 25
Waning Crescent
Jan 30
New
Feb 6
First Quarter
Feb 14
Full
Feb 22
Last Quarter

Hourly Weather History & Observations

Time (AST) Temp. Windchill Dew Point Humidity Pressure Visibility Wind Dir Wind Speed Gust Speed Precip Events Conditions
12:00 AM -8.3 °F - -12.8 °F 81% 29.93 in - ESE 2.3 mph - N/A   Unknown
1:00 AM -4.2 °F - -10.5 °F 74% 29.91 in - ENE 1.2 mph - N/A   Unknown
2:00 AM -4 °F - -11 °F 60% 29.88 in - East 2.3 mph - -  
2:00 AM -4.2 °F - -10.7 °F 74% 29.88 in - East 2.3 mph - N/A   Unknown
3:00 AM -1.8 °F -12.0 °F -9.8 °F 69% 29.86 in - SSE 4.6 mph - N/A   Unknown
4:00 AM -1.1 °F -11.2 °F -9.4 °F 68% 29.84 in - SE 4.6 mph - N/A   Unknown
5:00 AM -0.4 °F -8.3 °F -8.7 °F 68% 29.81 in - SSE 3.5 mph - N/A   Unknown
6:00 AM 0.7 °F -10.7 °F -8.0 °F 67% 29.80 in - SSE 5.8 mph - N/A   Unknown
7:00 AM 2.3 °F -7.2 °F -7.1 °F 65% 29.77 in - SE 4.6 mph - N/A   Unknown
8:00 AM 2 °F - -7 °F 54% 29.74 in - SSE 4.6 mph - -  
8:00 AM 2.5 °F -7.0 °F -6.5 °F 66% 29.74 in - SSE 4.6 mph - N/A   Unknown
9:00 AM 4.3 °F -6.5 °F -5.3 °F 65% 29.73 in - SSE 5.8 mph - N/A   Unknown
10:00 AM 7.9 °F -3.5 °F -2.6 °F 62% 29.70 in - SSE 6.9 mph - N/A   Unknown
11:00 AM 11.1 °F 0.4 °F 1.8 °F 66% 29.68 in - SSE 6.9 mph - N/A   Unknown
12:00 PM 12.4 °F 0.0 °F 3.6 °F 68% 29.65 in - SE 9.2 mph - N/A   Unknown
1:00 PM 15.1 °F 9.4 °F 5.5 °F 66% 29.61 in - South 3.5 mph - N/A   Unknown
2:00 PM 17 °F - 3 °F 38% 29.56 in - SSE 5.8 mph - -  
2:00 PM 17.2 °F 8.9 °F 2.7 °F 53% 29.56 in - SSE 5.8 mph - N/A   Unknown
3:00 PM 18.7 °F 11.9 °F 3.9 °F 53% 29.53 in - SSE 4.6 mph - N/A   Unknown
4:00 PM 18.9 °F 13.7 °F 11.5 °F 73% 29.50 in - SE 3.5 mph - N/A   Unknown
5:00 PM 19.6 °F 14.5 °F 15.4 °F 84% 29.47 in - SSE 3.5 mph - N/A   Unknown
6:00 PM 19.9 °F 14.9 °F 18.5 °F 94% 29.45 in - SSE 3.5 mph - N/A   Unknown
7:00 PM 19.9 °F - 17.6 °F 91% 29.42 in - SSE 1.2 mph - N/A   Unknown
8:00 PM 21 °F - 18 °F 86% 29.39 in - SE 3.5 mph - -  
8:00 PM 20.8 °F 16.0 °F 18.5 °F 91% 29.39 in - SE 3.5 mph - 0.03 in   Unknown
9:00 PM 21.2 °F 16.4 °F 19.0 °F 91% 29.36 in - SE 3.5 mph - 0.03 in   Unknown
10:00 PM 21.2 °F - 18.9 °F 91% 29.32 in - East 1.2 mph - 0.04 in   Unknown
11:00 PM 21.0 °F - 18.9 °F 91% 29.28 in - North 1.2 mph - 0.04 in   Unknown